Wetbulb
73.03 72.92 73.64 70.76 60.98 58.64 55.18 58.83 62.21 61.34 62.33 65.41 65.80 64.63 62.88 64.22 60.13 56.10 70.01 71.57 73.76 74.05 75.70 76.78 77.93 77.92 77.47 77.68 77.65 77.57 78.01 77.97 77.96 77.61 77.38 77.07 76.92 77.00 76.81 77.08 77.72 77.55 77.11 77.23 77.96 77.69 77.89 76.43 77.42
73.39 73.24 70.45 65.80 57.18 52.94 55.53 62.17 60.36 62.80 64.84 66.48 66.15 64.90 63.29 60.88 67.37 67.01 67.84 73.36 74.27 73.89 75.36 76.00 77.84 78.17 77.76 77.40 77.40 77.40 77.26 77.46 77.40 77.24 77.13 77.09 76.99 76.83 76.51 76.43 76.40 76.54 77.89 77.25 76.73 76.90 77.14 77.38 76.54
73.33 72.97 64.76 60.32 56.32 52.87 55.29 62.07 62.26 64.58 66.99 66.07 64.75 66.88 64.34 62.64 67.12 67.48 70.94 73.46 74.48 73.97 75.57 75.89 78.40 78.42 77.78 77.25 77.29 77.29 76.87 77.04 77.16 77.00 76.84 76.82 76.72 76.29 75.96 75.85 75.79 75.93 76.18 76.67 77.47 76.49 76.32 76.45 76.39
72.62 67.65 67.18 57.72 53.56 56.64 58.26 63.39 64.78 64.07 65.92 66.45 65.75 62.46 66.05 68.44 66.72 69.24 71.71 74.23 73.43 74.32 75.08 77.48 78.25 77.60 77.67 77.29 77.36 77.12 77.04 76.96 77.06 76.84 76.71 76.56 76.13 75.99 76.12 76.34 76.39 76.27 76.04 75.99 76.13 77.19 76.29 75.80 75.60
70.57 66.65 60.06 57.48 56.84 59.13 61.36 64.25 65.54 63.77 64.91 65.16 65.32 62.58 64.19 67.01 69.43 70.90 71.98 72.73 72.96 74.18 75.18 75.99 78.37 78.42 77.96 77.57 77.22 77.53 77.39 77.39 77.12 76.90 76.34 76.29 76.78 76.78 75.74 76.15 75.98 75.84 75.84 75.49 75.16 75.44 76.20 76.26 75.82
63.66 65.31 56.81 55.49 57.97 60.34 64.44 65.80 66.27 64.78 65.53 65.36 64.46 63.54 64.20 67.97 68.27 69.81 70.61 72.26 74.52 74.28 75.14 75.73 77.88 78.15 78.54 77.74 78.12 77.63 77.43 77.31 76.87 76.58 76.81 76.64 76.53 75.88 75.33 74.97 74.97 75.16 75.22 75.27 74.80 75.02 75.35 75.35 75.68
62.73 59.25 55.85 57.68 60.20 61.32 63.07 67.53 64.85 64.31 64.48 64.68 66.91 61.84 65.56 67.52 69.41 71.08 72.29 73.11 74.11 75.10 74.95 74.87 75.31 76.31 78.14 78.54 77.81 77.59 77.15 77.07 76.86 76.56 76.18 75.99 75.71 75.80 75.90 74.96 74.47 75.27 75.58 75.22 75.19 75.24 75.55 75.66 75.60
64.24 62.83 57.99 57.39 56.79 61.37 66.27 66.92 67.97 65.94 65.09 69.16 68.13 61.86 62.71 69.06 72.49 72.94 73.20 73.51 74.01 74.35 75.10 74.77 74.40 74.55 75.78 75.58 77.55 77.47 77.07 76.83 76.64 76.39 76.37 76.28 76.04 75.44 74.26 73.06 73.93 74.50 74.86 75.24 75.16 75.52 75.43 75.71 75.96
68.13 57.89 54.43 57.23 58.59 61.20 66.98 65.04 68.12 69.88 66.67 67.49 68.90 66.89 68.86 71.28 72.19 71.25 71.10 71.47 72.48 73.42 73.62 74.06 73.45 73.88 73.78 73.88 75.36 77.24 76.92 76.61 76.74 75.25 75.44 72.29 69.10 68.98 69.27 71.27 72.22 74.35 74.63 74.99 75.19 75.46 75.46 75.59 75.74
62.19 54.62 57.35 61.75 62.71 62.52 65.84 65.98 66.54 66.25 65.41 65.44 66.04 68.79 70.16 70.68 70.17 69.14 69.25 69.50 70.18 70.88 71.76 73.00 73.24 73.40 73.63 73.58 73.28 73.45 74.25 71.29 69.75 68.30 67.16 69.09 68.50 69.07 70.05 69.81 71.66 74.05 74.67 75.11 75.18 75.46 75.35 75.29 73.48
61.92 57.06 61.59 63.15 64.99 66.19 65.23 65.93 65.97 64.64 62.43 64.33 64.26 66.69 68.85 69.46 69.00 68.89 69.34 69.60 69.75 70.67 71.63 72.19 72.43 73.16 72.51 73.00 73.08 71.08 69.36 66.86 66.73 65.86 65.46 66.41 69.03 67.72 69.35 67.97 67.83 69.25 73.43 72.74 73.48 73.58 73.49 73.05 71.89
59.86 63.20 63.51 65.21 65.56 63.75 63.72 65.51 65.63 66.44 65.26 67.68 67.97 68.25 68.11 68.51 68.38 69.10 69.05 68.49 68.99 69.89 70.93 71.20 72.61 72.83 72.35 73.00 72.49 70.19 67.16 66.78 66.69 65.85 65.62 66.75 67.74 67.34 69.66 67.59 67.05 68.37 70.29 70.83 71.37 71.32 72.08 71.62 72.06
60.62 62.08 64.73 65.62 64.07 64.98 67.64 64.51 66.07 65.94 67.77 68.24 68.67 68.42 67.36 67.82 68.52 69.16 69.51 69.30 69.67 68.75 70.31 70.74 72.42 72.30 72.22 71.23 69.31 68.59 66.46 66.21 65.56 65.16 66.01 66.75 67.90 68.01 69.72 68.80 66.85 68.39 69.78 71.32 70.56 70.72 70.93 70.72 71.05
60.66 63.05 64.72 65.30 64.13 66.69 65.78 65.39 66.05 66.56 68.43 67.03 66.75 66.56 67.48 68.10 68.05 68.38 68.74 68.85 68.33 69.03 69.68 71.37 72.00 72.01 71.95 69.95 67.41 67.36 67.73 66.70 65.73 65.60 66.18 67.16 67.47 69.50 70.23 69.81 68.76 69.52 69.82 71.17 70.26 70.35 70.39 70.31 70.59
59.76 61.03 62.71 63.93 64.28 63.62 65.03 62.54 63.01 66.86 67.80 66.36 65.50 64.92 67.28 67.74 68.34 68.06 68.95 68.91 68.31 68.89 70.04 70.84 71.57 71.76 71.58 69.98 67.25 66.97 66.67 69.39 67.96 67.39 67.92 68.65 69.07 69.54 70.71 71.06 70.40 70.67 70.47 71.01 69.88 70.78 71.12 70.52 70.52
57.11 58.55 55.32 61.59 62.36 61.84 62.21 56.06 64.37 67.16 66.41 64.75 65.12 65.52 66.10 66.53 67.50 68.60 69.36 69.23 69.29 69.18 69.54 71.16 72.80 72.02 70.97 70.31 68.26 67.95 68.19 68.87 70.44 70.84 70.58 71.31 71.40 71.53 71.50 70.76 70.37 71.17 70.77 70.61 70.23 70.63 69.87 69.34 69.16
53.79 49.99 53.86 58.45 62.94 61.34 61.03 57.49 64.20 66.02 65.10 63.91 64.59 64.79 65.12 66.29 67.02 67.90 69.02 69.31 69.96 69.33 69.56 70.99 72.20 71.90 71.35 71.05 70.61 69.97 70.47 69.70 70.17 70.92 70.92 70.90 71.77 71.67 70.80 71.30 71.94 72.20 71.18 70.64 70.60 71.02 69.92 69.72 69.64
50.27 50.70 54.13 54.15 60.00 61.55 59.54 59.13 62.63 64.02 63.99 63.35 63.99 64.06 64.32 65.84 66.43 67.90 68.80 69.52 69.77 69.61 70.34 70.75 70.89 71.60 71.90 71.64 71.94 71.67 70.36 70.11 70.94 71.35 71.15 71.59 71.68 72.05 71.19 71.21 70.68 69.39 69.81 69.91 70.37 69.96 70.38 70.24 69.41
54.22 53.51 53.38 55.70 60.86 59.91 59.24 59.24 61.30 63.20 63.32 62.34 62.65 61.84 62.74 64.90 66.97 67.98 69.08 70.15 70.06 70.06 69.69 69.73 70.05 70.58 72.51 71.80 70.99 70.79 69.26 68.80 69.74 71.47 71.75 71.54 71.63 71.65 71.44 70.81 69.67 68.82 69.11 70.34 70.71 69.72 69.84 67.95 69.81
54.87 52.58 51.97 55.68 59.24 56.51 58.58 58.91 61.63 62.82 62.06 62.85 62.64 62.86 63.35 64.00 65.88 67.31 68.83 69.81 69.88 69.86 69.89 69.75 70.34 71.53 72.85 72.53 71.68 70.95 70.63 70.44 70.43 69.75 69.49 71.17 72.39 72.61 72.34 70.88 69.86 70.08 69.70 70.19 70.48 70.52 68.17 69.57 68.80
49.49 49.40 51.92 52.13 53.92 53.91 57.89 54.61 58.93 62.08 63.04 63.47 64.44 64.47 64.33 63.92 65.65 66.73 67.75 68.84 70.16 69.91 70.15 69.93 70.54 71.59 72.33 72.41 71.06 70.54 70.43 70.06 69.90 69.86 68.68 70.39 72.60 73.44 72.17 72.16 71.03 70.70 70.06 69.68 70.71 69.82 69.15 68.40 67.63
47.19 54.33 55.91 56.06 49.17 44.73 51.22 43.41 53.90 58.32 60.15 60.80 60.55 60.38 62.75 64.20 66.59 67.46 67.60 67.80 69.78 70.23 71.64 71.28 70.74 71.39 72.12 72.11 71.14 70.13 68.96 67.43 68.55 69.52 69.76 70.25 71.52 70.39 68.76 69.80 70.89 71.55 70.56 69.12 70.04 71.18 70.04 68.82 67.79
52.73 54.66 54.44 54.11 47.07 43.44 45.30 45.05 51.27 57.52 57.53 58.68 60.30 61.86 63.39 64.58 65.78 66.05 67.11 68.78 70.33 70.81 71.97 71.93 72.39 71.56 72.12 72.51 72.42 71.02 69.05 69.29 69.23 70.96 70.10 70.52 69.77 66.98 67.97 67.52 69.31 69.84 71.19 71.64 71.74 70.80 70.12 69.57 68.76
55.44 52.20 48.94 46.55 43.49 39.58 43.50 44.30 47.13 51.77 55.94 58.91 61.72 62.10 63.27 64.97 64.27 65.81 66.54 65.93 69.62 71.63 72.33 72.62 73.04 72.16 72.59 72.86 72.93 71.57 69.89 69.91 69.88 65.58 64.98 67.68 69.41 66.80 66.76 67.26 68.44 68.75 71.77 70.77 70.56 71.72 71.11 69.46 67.95
50.95 44.40 39.52 39.74 38.80 39.19 46.10 49.69 51.39 55.95 57.92 61.34 60.96 61.33 63.08 63.67 64.28 65.58 66.18 65.39 67.43 71.19 72.15 72.60 73.08 72.55 73.03 73.26 73.21 72.58 71.34 70.04 69.34 67.50 68.34 69.86 69.73 69.05 68.82 69.52 69.07 68.10 69.20 71.70 71.24 69.73 70.84 70.87 70.36
46.14 45.53 40.46 36.08 36.89 40.49 50.75 46.77 51.22 58.33 59.33 61.47 62.14 62.10 63.85 63.19 63.82 65.53 67.98 67.91 66.75 71.01 72.52 72.93 72.82 73.01 73.73 73.70 73.67 73.43 72.87 72.43 71.19 71.51 71.76 70.92 70.31 70.13 70.29 69.72 68.84 67.45 67.53 66.72 69.94 71.50 71.10 70.29 70.57
47.02 43.79 46.52 41.58 38.47 41.51 45.61 49.80 55.10 57.67 58.52 59.65 60.88 61.65 61.74 61.76 64.25 65.49 66.02 64.68 65.99 70.80 72.09 72.90 73.03 73.17 74.18 74.81 74.08 74.22 73.45 74.21 73.53 73.72 71.94 71.03 71.72 71.15 70.09 69.55 69.21 68.45 67.35 68.90 69.90 70.81 70.78 70.43 70.32
47.02 48.24 42.27 40.14 36.66 36.77 45.13 46.38 46.51 52.09 54.50 59.64 59.76 59.36 60.75 64.02 64.28 62.56 63.66 66.12 66.16 68.00 72.54 73.90 73.97 73.73 74.90 74.99 74.96 74.21 73.70 73.57 73.66 73.27 73.09 70.72 70.66 71.04 70.18 69.69 68.79 69.80 70.16 70.18 70.56 70.82 71.36 70.56 70.04
49.51 47.29 44.91 42.20 41.49 40.87 39.40 44.11 53.00 55.07 56.53 58.62 59.35 60.75 61.86 63.34 65.47 62.54 65.38 65.86 65.76 66.84 70.32 74.16 74.04 74.16 74.37 74.69 74.48 72.93 72.60 73.27 72.53 72.40 72.09 71.42 69.63 71.71 71.09 70.61 71.68 71.92 72.14 72.38 71.15 70.82 71.29 71.21 71.28
52.40 48.58 44.50 41.38 41.57 45.65 43.06 45.97 56.57 56.28 57.84 60.02 60.04 61.99 64.78 64.51 65.38 67.20 67.38 65.68 65.23 69.54 71.14 74.08 72.89 73.43 73.82 73.58 73.39 72.87 73.50 71.67 71.35 70.19 70.67 70.79 70.39 68.47 67.64 68.12 67.60 67.47 68.77 70.80 70.87 70.75 70.87 70.77 70.33
MSLP
1006.99 1006.80 1007.26 1007.76 1009.29 1009.87 1010.26 1009.23 1008.04 1007.68 1007.42 1007.21 1007.78 1008.03 1008.74 1009.44 1010.58 1012.43 1012.66 1013.43 1014.20 1014.90 1015.08 1015.32 1015.43 1015.60 1015.89 1016.02 1016.13 1016.35 1016.51 1016.78 1016.87 1017.05 1017.32 1017.59 1017.65 1017.81 1018.04 1018.29 1018.39 1018.44 1018.54 1018.71 1018.69 1018.65 1018.61 1018.79 1018.96
1005.99 1006.31 1007.48 1009.32 1011.31 1011.93 1010.92 1009.48 1008.29 1007.57 1007.42 1007.41 1007.90 1008.25 1008.59 1010.07 1010.58 1011.92 1013.03 1013.64 1014.05 1014.62 1015.08 1015.37 1015.59 1015.85 1016.09 1016.28 1016.38 1016.61 1016.72 1016.84 1017.14 1017.39 1017.57 1017.72 1017.89 1017.95 1018.14 1018.36 1018.48 1018.57 1018.63 1018.90 1018.90 1018.76 1018.86 1019.03 1019.13
1006.32 1006.78 1008.61 1011.17 1012.61 1012.65 1011.28 1009.20 1008.37 1008.05 1007.49 1007.19 1007.71 1008.02 1009.10 1010.53 1011.43 1012.11 1012.95 1013.69 1014.21 1014.92 1015.33 1015.56 1015.72 1015.94 1016.21 1016.41 1016.55 1016.78 1016.97 1017.14 1017.40 1017.64 1017.79 1017.83 1017.99 1018.08 1018.18 1018.26 1018.42 1018.63 1018.73 1018.80 1018.82 1019.07 1019.22 1019.34 1019.50
1006.97 1008.53 1010.12 1011.83 1013.21 1012.50 1011.78 1009.97 1008.18 1008.22 1007.70 1007.48 1007.72 1008.87 1009.89 1010.21 1011.14 1012.03 1013.13 1013.78 1014.39 1015.08 1015.44 1015.55 1015.85 1016.11 1016.28 1016.48 1016.63 1016.87 1017.12 1017.36 1017.49 1017.74 1017.94 1018.04 1018.03 1018.06 1018.19 1018.23 1018.43 1018.66 1018.77 1018.76 1018.88 1019.01 1019.26 1019.43 1019.71
1007.48 1009.60 1011.11 1012.41 1012.58 1011.30 1011.22 1010.11 1008.33 1008.03 1007.91 1008.01 1008.19 1009.37 1010.14 1011.01 1011.36 1012.43 1013.39 1014.02 1014.63 1015.35 1015.58 1015.78 1015.95 1016.17 1016.37 1016.52 1016.65 1016.97 1017.24 1017.41 1017.60 1017.83 1018.00 1018.13 1018.17 1018.13 1018.18 1018.17 1018.26 1018.51 1018.70 1018.81 1018.97 1019.02 1019.15 1019.45 1019.59
1008.26 1009.48 1010.74 1011.32 1011.22 1010.76 1010.01 1008.74 1008.05 1007.90 1008.35 1008.57 1008.95 1009.45 1010.90 1011.42 1011.86 1012.93 1013.40 1014.11 1014.47 1015.23 1015.64 1015.90 1016.09 1016.30 1016.45 1016.58 1016.81 1017.11 1017.33 1017.52 1017.73 1017.79 1018.06 1018.27 1018.34 1018.33 1018.25 1018.24 1018.35 1018.47 1018.67 1018.89 1019.10 1019.24 1019.27 1019.35 1019.40
1007.85 1009.09 1009.16 1009.18 1009.34 1009.03 1008.42 1008.18 1007.85 1008.11 1008.22 1008.62 1008.81 1009.89 1011.58 1012.26 1012.46 1012.96 1013.69 1014.33 1014.78 1015.10 1015.58 1015.95 1016.19 1016.36 1016.54 1016.77 1017.07 1017.27 1017.47 1017.67 1017.88 1017.99 1018.12 1018.29 1018.36 1018.24 1018.26 1018.35 1018.44 1018.42 1018.58 1018.89 1019.10 1019.29 1019.40 1019.40 1019.33
1006.59 1007.74 1008.16 1008.14 1008.25 1007.84 1007.54 1007.87 1008.25 1008.02 1008.32 1008.56 1008.80 1010.40 1011.52 1012.50 1012.93 1013.66 1014.22 1014.77 1015.15 1015.39 1015.64 1015.93 1016.22 1016.44 1016.67 1016.87 1017.04 1017.29 1017.40 1017.54 1017.75 1018.04 1018.21 1018.38 1018.50 1018.45 1018.47 1018.61 1018.62 1018.56 1018.70 1018.84 1019.04 1019.31 1019.56 1019.50 1019.41
1005.09 1006.42 1007.07 1006.94 1006.74 1006.85 1007.05 1007.64 1008.55 1008.14 1008.37 1008.63 1009.04 1010.18 1011.09 1012.32 1013.08 1013.95 1014.63 1015.17 1015.70 1015.81 1015.87 1015.83 1016.23 1016.68 1016.86 1016.99 1017.08 1017.29 1017.47 1017.77 1017.92 1018.15 1018.18 1018.43 1018.67 1018.61 1018.58 1018.47 1018.45 1018.51 1018.73 1018.90 1018.93 1019.12 1019.54 1019.55 1019.43
1003.71 1005.14 1005.51 1005.25 1005.41 1006.16 1007.03 1006.78 1008.08 1008.43 1008.64 1009.24 1009.92 1011.17 1012.05 1012.39 1013.04 1013.72 1014.35 1015.04 1015.53 1015.72 1015.87 1016.02 1016.21 1016.62 1016.86 1017.09 1017.25 1017.59 1017.84 1018.15 1018.55 1018.67 1018.54 1018.47 1018.58 1018.64 1018.61 1018.55 1018.51 1018.56 1018.64 1018.72 1018.89 1018.89 1019.30 1019.45 1019.52
1003.48 1004.23 1004.29 1004.59 1005.00 1005.28 1006.47 1007.15 1007.63 1008.00 1008.77 1008.62 1009.81 1011.04 1011.88 1012.51 1013.21 1013.55 1014.15 1014.26 1014.55 1015.07 1015.60 1015.93 1016.24 1016.63 1016.78 1017.13 1017.39 1017.82 1018.18 1018.56 1018.88 1018.80 1018.51 1018.40 1018.51 1018.68 1018.57 1018.69 1018.65 1018.55 1018.47 1018.75 1018.81 1018.92 1019.29 1019.49 1019.52
1003.27 1003.57 1003.72 1004.59 1004.92 1005.67 1006.19 1006.85 1007.67 1007.77 1008.12 1008.64 1009.64 1010.42 1011.55 1012.36 1013.05 1013.38 1013.93 1014.55 1014.75 1014.95 1015.27 1015.70 1015.91 1016.36 1016.67 1017.02 1017.37 1017.77 1018.35 1018.63 1018.74 1018.76 1018.42 1018.43 1018.54 1018.41 1018.44 1018.53 1018.52 1018.43 1018.37 1018.72 1018.74 1018.95 1019.09 1019.32 1019.36
1003.18 1003.32 1003.76 1004.30 1004.65 1004.93 1005.63 1006.89 1007.65 1008.13 1008.41 1009.11 1009.75 1010.44 1011.19 1011.84 1012.50 1013.00 1013.34 1014.07 1014.38 1014.70 1014.94 1015.45 1015.95 1016.26 1016.54 1016.97 1017.32 1017.70 1018.06 1018.20 1018.31 1018.27 1018.00 1018.16 1018.15 1018.20 1017.91 1018.16 1018.38 1018.21 1018.08 1018.50 1018.63 1018.69 1018.80 1018.88 1019.04
1002.85 1003.04 1003.80 1004.53 1005.01 1005.58 1006.07 1007.43 1007.72 1008.60 1008.61 1009.12 1009.56 1010.54 1011.04 1011.66 1012.20 1012.75 1013.18 1013.59 1013.97 1014.20 1014.69 1015.24 1015.78 1015.89 1016.32 1016.79 1017.05 1017.31 1017.46 1017.66 1017.89 1017.78 1017.67 1017.84 1017.89 1017.99 1018.06 1018.01 1017.96 1017.91 1018.03 1018.33 1018.55 1018.58 1018.55 1018.50 1018.58
1002.74 1004.31 1004.78 1005.18 1005.40 1006.08 1006.52 1008.17 1008.08 1008.27 1008.41 1008.93 1009.63 1010.16 1010.68 1011.13 1011.88 1012.04 1012.23 1012.62 1013.08 1013.63 1014.17 1014.95 1015.45 1015.73 1016.15 1016.64 1016.88 1017.18 1017.18 1017.46 1017.66 1017.60 1017.40 1017.51 1017.82 1017.90 1017.60 1017.52 1017.61 1017.69 1017.99 1018.19 1018.42 1018.35 1018.29 1018.36 1018.29
1002.93 1004.37 1005.48 1005.59 1005.72 1006.25 1006.38 1008.02 1008.11 1008.23 1008.71 1009.16 1009.31 1009.62 1010.27 1010.77 1010.92 1011.38 1011.85 1012.24 1012.82 1013.45 1014.00 1014.64 1015.19 1015.66 1016.09 1016.54 1016.74 1016.87 1016.95 1017.15 1017.22 1017.25 1017.33 1017.43 1017.68 1017.75 1017.68 1017.80 1017.71 1017.78 1018.00 1018.08 1018.27 1018.31 1018.39 1018.60 1018.37
1003.73 1004.21 1004.74 1005.73 1005.47 1005.47 1006.47 1007.71 1007.92 1008.07 1008.44 1009.04 1009.31 1009.51 1009.77 1010.26 1010.97 1011.27 1011.56 1011.99 1012.57 1013.10 1013.67 1014.37 1014.91 1015.37 1015.86 1016.30 1016.52 1016.53 1016.56 1016.69 1016.75 1016.92 1017.07 1017.23 1017.41 1017.39 1017.64 1017.78 1017.66 1017.81 1017.89 1018.08 1018.04 1018.19 1018.28 1018.12 1018.11
1003.95 1004.08 1003.94 1004.64 1005.20 1005.65 1006.21 1006.86 1007.19 1007.51 1007.80 1008.43 1008.84 1009.13 1009.47 1009.73 1010.03 1010.67 1011.14 1011.80 1012.36 1013.04 1013.42 1014.01 1014.63 1015.28 1015.67 1016.07 1016.21 1016.47 1016.60 1016.53 1016.53 1016.55 1016.61 1016.59 1016.76 1016.92 1017.30 1017.60 1017.58 1017.72 1017.91 1017.78 1017.82 1017.90 1017.82 1017.86 1017.79
1003.23 1003.44 1003.75 1003.53 1004.28 1005.19 1005.79 1006.47 1006.77 1006.90 1007.33 1007.82 1008.37 1008.79 1009.14 1009.52 1009.78 1010.19 1010.61 1011.30 1012.13 1013.00 1013.43 1013.87 1014.54 1015.11 1015.53 1016.04 1016.21 1016.54 1016.86 1016.70 1016.55 1016.41 1016.24 1016.30 1016.42 1016.57 1016.81 1016.93 1017.35 1017.57 1017.74 1017.57 1017.39 1017.70 1017.68 1018.17 1017.77
1003.22 1003.48 1003.38 1003.17 1003.64 1004.68 1005.64 1006.33 1006.54 1006.42 1006.63 1006.81 1007.69 1008.71 1008.91 1009.23 1009.72 1010.25 1010.64 1011.22 1011.72 1012.43 1013.23 1013.79 1014.22 1014.79 1014.89 1015.27 1015.76 1016.04 1016.26 1016.40 1016.26 1016.07 1016.15 1016.28 1016.30 1016.23 1016.41 1016.59 1017.12 1017.19 1017.39 1017.61 1017.53 1017.57 1017.76 1017.97 1017.89
1003.19 1003.08 1002.67 1002.83 1003.37 1004.64 1005.71 1007.05 1007.04 1006.69 1006.80 1007.15 1007.56 1008.07 1008.66 1008.83 1009.21 1010.11 1010.76 1010.98 1011.47 1012.20 1012.66 1013.20 1013.78 1014.34 1014.51 1014.84 1015.43 1015.98 1016.15 1016.26 1016.26 1016.01 1016.07 1015.97 1015.97 1016.22 1016.53 1016.50 1016.51 1016.73 1016.93 1017.18 1017.21 1017.53 1017.72 1017.82 1017.84
1002.65 1002.24 1002.18 1002.93 1004.09 1004.97 1005.48 1007.30 1007.05 1006.94 1007.11 1007.23 1007.69 1008.13 1008.82 1009.05 1009.00 1009.46 1010.27 1010.91 1011.12 1011.45 1012.13 1012.64 1013.29 1013.90 1014.13 1014.70 1015.20 1015.38 1015.62 1015.91 1015.73 1015.68 1015.60 1015.82 1015.81 1015.47 1014.89 1015.06 1015.82 1016.25 1016.76 1016.99 1016.86 1016.94 1017.02 1017.44 1017.57
1002.45 1002.14 1002.38 1002.98 1004.39 1005.43 1005.89 1006.77 1006.36 1007.08 1007.88 1007.58 1008.20 1008.75 1008.77 1009.12 1009.09 1009.24 1009.65 1010.09 1010.64 1011.25 1011.68 1012.10 1012.73 1013.56 1013.90 1014.34 1014.71 1015.08 1015.14 1015.06 1015.24 1015.34 1015.45 1015.75 1015.48 1014.46 1013.78 1014.56 1014.50 1015.45 1016.10 1016.27 1016.41 1016.60 1016.69 1016.94 1017.25
1001.67 1002.33 1003.32 1004.47 1005.61 1006.73 1006.26 1006.99 1006.99 1007.19 1006.91 1007.96 1008.84 1009.99 1010.05 1010.34 1010.15 1010.07 1010.32 1010.41 1010.73 1011.32 1011.40 1011.92 1012.18 1012.56 1013.47 1013.81 1014.06 1014.37 1014.78 1014.92 1015.21 1015.42 1015.59 1015.74 1015.35 1014.47 1014.25 1014.47 1014.64 1014.84 1015.35 1015.61 1015.77 1016.33 1016.46 1016.66 1016.98
1002.10 1003.98 1005.20 1006.63 1007.34 1007.56 1006.78 1007.13 1006.85 1006.91 1006.66 1006.34 1007.67 1008.53 1009.33 1009.60 1010.46 1010.25 1010.30 1010.27 1010.55 1010.55 1010.77 1011.52 1011.90 1012.28 1012.86 1013.48 1013.94 1014.19 1014.28 1014.68 1014.93 1015.05 1015.12 1015.11 1015.22 1014.95 1014.47 1014.66 1014.70 1014.88 1014.98 1015.32 1015.44 1015.79 1016.31 1016.26 1016.26
1002.54 1004.05 1005.63 1007.25 1008.47 1007.97 1007.43 1007.41 1006.81 1007.45 1006.51 1007.18 1007.71 1008.26 1009.16 1008.99 1009.91 1008.13 1009.12 1010.08 1010.11 1010.30 1010.54 1010.49 1011.12 1011.59 1012.39 1012.79 1012.98 1013.76 1014.32 1014.47 1014.37 1014.39 1014.63 1014.54 1014.64 1014.30 1014.02 1014.41 1014.53 1014.61 1014.73 1014.84 1015.01 1015.37 1015.52 1015.74 1015.52
1002.55 1004.01 1004.65 1006.54 1008.04 1008.77 1008.89 1008.08 1006.92 1007.53 1008.50 1008.45 1009.63 1010.50 1011.14 1010.21 1009.33 1008.66 1009.04 1009.89 1009.65 1009.51 1009.90 1009.48 1009.88 1010.58 1011.72 1012.30 1012.50 1012.70 1013.15 1013.39 1013.94 1013.68 1014.04 1014.41 1014.15 1014.00 1014.00 1014.12 1014.52 1014.59 1014.54 1014.39 1014.67 1014.87 1014.85 1015.04 1015.14
1002.51 1003.55 1005.25 1007.21 1008.52 1009.21 1009.17 1008.67 1008.40 1007.97 1009.78 1011.08 1011.76 1012.45 1011.63 1011.00 1010.61 1010.69 1010.10 1009.20 1009.80 1009.76 1008.50 1008.29 1008.52 1009.22 1010.35 1011.58 1012.08 1012.26 1012.60 1012.87 1013.30 1013.54 1013.69 1014.14 1014.28 1014.22 1014.08 1014.20 1014.39 1014.40 1014.40 1014.38 1014.37 1014.30 1014.26 1014.51 1014.44
1003.52 1004.46 1005.70 1007.10 1008.08 1008.91 1009.38 1009.18 1008.09 1008.96 1009.69 1013.10 1013.08 1012.51 1011.63 1010.72 1010.74 1010.27 1010.51 1010.14 1009.21 1008.24 1007.55 1006.90 1007.91 1008.68 1010.13 1010.18 1011.10 1011.82 1012.07 1012.41 1012.82 1013.30 1013.49 1013.83 1014.19 1014.46 1014.47 1014.37 1014.28 1014.25 1014.25 1014.02 1013.93 1013.83 1013.86 1013.95 1013.84
1003.90 1005.36 1006.39 1007.87 1008.35 1008.51 1009.10 1008.91 1009.16 1009.51 1010.02 1011.65 1012.61 1012.17 1011.58 1011.44 1011.11 1011.24 1010.82 1009.33 1009.52 1009.64 1009.15 1008.53 1008.76 1008.78 1009.19 1010.21 1010.87 1011.61 1011.94 1012.47 1012.81 1013.34 1013.54 1013.89 1014.22 1014.34 1014.40 1014.37 1014.20 1014.00 1013.92 1013.81 1013.71 1013.62 1013.51 1013.51 1013.45
Wind_Speed
1 3 3 4 7 6 5 1 3 6 4 1 12 3 7 5 3 4 16 17 18 13 13 16 18 19 18 17 17 16 17 17 17 16 16 15 16 16 14 13 12 13 13 12 12 12 11 13 14
3 4 5 4 6 4 4 2 6 4 6 15 13 9 7 4 8 18 13 20 19 14 11 14 18 18 18 17 16 15 15 16 15 14 14 14 13 13 12 12 10 10 11 12 11 11 10 10 10
11 8 7 6 3 2 5 5 8 6 5 5 6 11 5 8 14 11 17 21 18 13 11 14 18 18 19 18 17 15 14 14 13 12 12 12 11 10 9 9 9 8 8 9 10 10 9 8 7
5 6 6 5 7 7 7 11 13 9 8 12 12 10 7 6 9 12 21 20 18 13 12 17 20 20 19 18 17 15 14 13 13 12 11 10 10 9 7 6 6 6 6 6 6 7 7 7 6
3 4 5 5 8 6 5 17 2 8 3 13 13 12 8 7 21 24 21 18 17 13 12 14 19 18 18 18 17 15 14 13 13 12 10 9 8 8 5 5 5 4 4 4 2 2 4 3 4
4 2 4 7 9 18 12 11 9 13 13 14 17 12 6 21 25 20 21 18 17 16 13 12 18 19 18 18 17 15 14 13 12 11 9 9 8 7 4 3 3 4 3 2 2 2 2 3 4
6 3 4 4 10 5 9 13 10 14 17 6 12 17 14 20 19 18 18 17 15 15 14 11 11 15 18 16 16 15 14 12 11 9 8 8 7 5 5 4 2 3 4 2 2 4 4 4 4
4 4 3 2 5 2 9 8 7 12 8 15 19 9 17 19 19 18 16 14 14 13 12 11 9 9 8 10 17 16 15 15 13 11 7 9 8 5 6 6 3 0 3 3 4 5 5 5 5
9 4 2 6 7 4 14 9 5 2 14 10 4 16 21 22 21 17 14 12 10 9 9 10 8 6 7 6 10 14 16 13 13 11 11 7 3 3 4 4 2 0 2 3 5 6 6 7 7
6 6 7 7 5 5 12 18 14 8 17 10 14 17 22 24 20 20 16 15 13 12 10 8 8 9 8 5 4 4 4 4 4 3 3 3 5 3 3 2 2 1 3 4 7 8 8 7 1
3 5 7 8 5 9 12 14 5 13 15 22 24 23 22 20 15 17 14 17 17 15 11 11 10 8 9 5 4 2 2 3 2 2 3 3 2 2 1 0 1 1 2 1 4 4 2 4 3
4 6 7 7 11 6 2 8 12 8 12 21 23 24 20 18 15 15 13 11 12 14 13 11 12 11 9 6 6 5 3 3 3 4 5 2 1 3 3 1 1 1 2 3 4 2 4 5 5
3 7 11 12 15 13 15 11 9 12 15 17 22 21 21 18 16 14 14 11 13 12 13 12 11 11 9 8 5 4 4 4 4 4 5 4 4 4 3 1 3 2 1 2 4 4 4 4 4
7 5 20 14 10 16 20 18 12 11 16 17 18 21 17 17 15 11 11 13 13 13 12 12 12 11 9 7 6 5 4 5 4 4 4 5 4 4 3 3 4 3 3 3 3 4 4 4 4
6 18 12 11 9 12 16 12 16 16 17 17 12 13 21 20 18 18 18 16 16 13 13 13 12 11 10 8 6 5 4 4 4 4 6 6 5 4 5 3 3 2 3 4 4 4 4 3 4
6 13 7 6 8 7 6 6 15 16 16 13 14 13 14 16 21 18 18 16 15 11 13 12 11 11 8 7 5 4 4 4 4 4 4 5 5 6 4 3 3 3 3 2 3 3 4 4 4
3 5 8 6 8 8 4 6 17 16 16 14 13 11 13 12 12 13 16 16 14 12 13 12 11 11 9 7 6 5 6 5 4 4 4 6 6 6 4 4 4 4 3 3 3 3 3 3 4
1 5 5 8 9 3 6 9 15 14 16 16 15 12 12 17 17 16 16 16 13 12 12 12 9 11 10 6 5 3 3 4 4 5 4 6 5 8 7 5 5 4 3 4 3 4 3 2 3
10 4 4 6 10 6 14 11 16 14 14 13 14 8 9 14 12 14 14 16 14 11 10 12 8 8 8 5 4 3 3 3 3 4 6 6 5 5 6 5 4 5 4 4 5 1 4 3 1
4 10 6 2 12 5 10 14 16 17 16 17 16 9 10 7 11 10 14 14 15 15 11 9 8 10 9 7 4 3 4 3 3 2 4 3 4 5 6 7 5 5 4 5 4 2 4 4 3
5 5 8 11 5 2 11 1 9 10 6 9 14 13 8 9 14 12 13 14 14 13 13 12 11 11 10 10 3 3 3 0 2 3 2 4 3 3 4 4 3 5 4 4 4 3 5 4 3
6 5 2 3 6 5 6 5 7 7 10 14 13 7 8 8 9 11 12 11 14 14 12 12 12 11 11 10 6 7 5 5 4 3 3 4 7 4 4 5 1 1 3 4 5 4 5 3 4
12 7 5 1 4 3 1 6 7 12 11 17 7 5 9 7 8 10 10 13 13 13 13 12 12 12 12 10 9 7 5 4 2 2 6 5 5 7 2 5 7 3 3 4 5 5 5 3 1
4 1 8 6 4 4 5 6 6 6 12 13 2 4 5 2 7 6 6 8 7 11 13 13 13 13 13 12 9 9 8 5 3 2 4 5 5 4 6 4 3 5 6 7 7 4 5 4 4
5 8 4 6 6 8 2 4 6 2 4 19 17 11 7 8 5 4 4 5 6 14 16 13 13 12 11 10 8 7 8 7 7 6 4 5 6 4 8 5 4 4 6 6 6 5 4 5 4
4 10 8 6 4 5 3 5 4 6 6 5 10 13 8 10 7 8 4 5 4 12 16 17 15 13 11 11 10 7 7 4 5 6 4 4 5 5 6 5 5 6 6 5 5 4 5 5 8
8 1 7 5 2 3 4 6 7 7 5 6 8 10 8 1 8 5 8 6 6 12 17 20 17 15 14 13 10 9 8 8 6 7 5 4 4 4 6 5 4 5 6 6 5 4 5 6 6
4 3 3 5 1 2 3 4 5 6 11 11 14 10 4 6 4 6 9 8 6 9 15 16 17 19 17 12 9 8 6 6 5 4 6 7 4 4 4 5 6 6 6 6 6 4 5 6 6
7 5 5 6 6 6 2 7 7 3 3 23 12 10 8 10 10 9 9 11 16 17 14 17 16 15 12 12 10 7 7 6 5 5 4 5 4 6 6 6 6 5 5 5 4 5 5 6 6
7 4 6 6 7 2 5 6 7 5 8 10 11 8 12 6 13 8 9 15 14 20 13 6 8 11 10 7 6 6 6 5 6 4 3 1 1 0 2 3 3 2 3 3 4 6 6 5 6
Wind_Direction
313 98 129 42 41 53 9 351 137 109 87 263 157 177 147 99 168 176 135 133 137 143 147 140 141 136 130 125 120 116 113 109 105 105 104 101 97 99 103 98 100 112 107 108 106 107 115 111 113
246 143 54 64 76 50 272 276 82 91 132 111 106 95 64 88 76 116 118 137 142 145 144 143 145 140 136 132 127 124 119 116 114 111 109 105 103 106 106 106 106 104 107 114 111 113 107 106 113
69 43 80 82 52 142 261 251 144 124 140 147 104 76 70 105 107 127 132 137 136 141 143 149 148 145 144 140 135 133 132 127 124 121 117 114 111 109 109 111 113 108 107 105 119 119 124 125 121
352 28 64 67 109 261 243 0 104 112 87 90 104 76 75 128 115 130 138 137 136 141 145 149 151 151 149 146 143 141 140 137 135 131 127 125 123 118 116 119 112 110 103 109 111 124 130 137 146
85 85 64 117 169 248 263 264 120 126 84 91 114 117 99 88 122 133 138 139 136 142 151 149 152 152 151 149 149 148 146 145 142 138 137 131 122 113 119 124 118 118 126 114 109 123 136 150 169
51 55 109 164 199 228 198 220 138 110 108 102 108 107 101 133 131 147 144 141 141 143 151 153 154 153 155 156 149 147 148 148 146 145 137 124 121 120 126 118 106 125 128 142 168 202 165 170 216
143 141 202 127 148 171 191 189 127 128 132 119 126 109 124 135 143 137 131 135 140 144 149 152 155 157 158 147 149 151 152 150 145 141 132 126 129 137 123 94 120 150 146 194 198 219 217 209 211
146 156 182 115 141 180 133 137 103 140 146 114 120 136 151 136 127 125 123 127 137 145 152 151 159 159 143 153 159 158 160 156 150 136 119 106 101 109 92 65 25 236 195 211 207 229 231 225 222
144 113 170 174 133 179 129 123 125 226 137 141 161 137 124 134 127 121 122 120 131 144 154 154 148 139 142 154 166 166 167 160 149 134 127 120 126 138 97 73 54 269 225 219 247 236 234 242 234
122 110 203 196 136 138 149 133 159 156 149 132 104 120 129 139 136 141 144 148 159 160 164 162 152 153 151 160 147 134 145 92 96 103 113 158 159 185 147 26 48 87 225 220 244 248 238 247 236
139 157 126 127 123 110 135 141 120 129 146 146 145 144 143 140 148 151 157 158 169 168 168 173 160 160 161 148 142 135 129 105 120 172 213 227 200 181 287 86 36 73 46 333 258 259 235 225 203
104 155 129 124 109 80 84 114 140 151 152 150 151 150 148 146 159 154 160 172 163 173 176 173 167 165 169 155 162 166 151 168 179 215 238 229 250 264 183 101 198 161 63 313 254 225 232 227 231
184 168 126 135 125 137 118 126 114 114 129 149 145 155 162 163 165 171 167 167 174 181 176 179 166 173 165 166 158 165 182 178 192 201 218 210 211 242 297 12 212 277 285 252 263 227 233 228 217
206 120 136 139 135 129 114 125 124 148 139 158 162 162 165 163 169 164 164 171 181 172 173 165 175 175 165 170 176 174 186 190 187 199 217 221 222 208 229 234 224 231 253 218 244 240 228 223 216
189 111 113 138 142 121 109 115 145 166 158 162 173 156 172 178 172 178 183 176 176 180 164 169 173 175 168 168 184 180 195 193 195 210 207 214 210 236 249 236 257 242 218 244 260 246 253 244 221
156 121 137 237 164 170 99 171 168 168 162 175 180 172 167 169 175 185 178 181 177 166 176 165 177 177 161 164 184 189 199 192 205 210 220 213 206 224 237 211 244 243 225 221 244 255 266 204 222
7 178 135 175 256 135 127 172 181 175 168 178 189 189 175 173 169 172 177 178 177 169 170 167 175 175 167 173 181 198 197 200 208 205 205 206 202 215 206 215 217 225 211 252 252 255 214 259 254
173 234 166 172 196 161 156 188 173 180 167 183 189 188 172 177 187 173 171 178 170 174 168 170 171 173 170 163 176 201 217 215 215 223 219 217 198 200 201 215 210 202 235 245 246 234 243 185 226
220 200 219 191 176 130 176 170 178 187 179 172 186 177 169 184 185 178 174 171 167 172 168 174 158 158 154 171 183 201 219 226 243 211 225 221 225 216 201 201 195 195 220 230 226 187 24 308 282
296 246 244 314 162 139 174 179 186 192 183 178 179 162 151 134 157 174 176 171 169 175 178 174 170 167 177 182 188 167 167 196 214 200 227 236 245 217 209 204 203 213 207 231 239 185 139 239 205
257 212 211 187 156 18 113 354 192 213 167 175 180 174 160 163 169 169 174 178 172 178 180 180 182 182 189 192 155 84 89 72 208 235 238 208 270 357 345 301 241 222 210 230 216 207 199 220 239
299 276 337 116 108 201 163 227 238 177 185 190 179 194 155 172 163 162 184 181 184 187 180 179 188 188 198 195 197 183 180 183 212 188 169 96 109 134 193 153 140 285 258 229 224 212 204 170 221
245 240 237 91 119 92 303 84 248 129 194 204 184 173 192 181 160 156 163 191 192 177 180 183 184 195 202 196 202 206 197 211 140 151 134 118 177 227 209 182 181 216 206 255 236 247 221 169 151
255 231 42 49 75 5 239 150 288 179 183 198 126 81 326 11 36 40 53 35 212 195 176 179 178 187 200 194 195 189 213 213 151 174 174 159 204 235 267 227 182 207 219 220 235 247 253 189 192
94 54 358 359 4 227 238 93 230 297 281 181 177 163 159 119 104 70 33 139 303 191 183 183 182 188 198 200 201 197 201 197 196 189 184 160 180 236 244 217 195 191 212 225 217 226 226 171 236
211 153 157 200 203 256 7 204 249 169 253 129 158 155 182 149 241 160 65 321 208 214 193 183 184 187 193 198 199 193 202 204 200 195 186 193 203 219 235 194 210 218 225 233 213 215 214 208 222
266 190 191 118 121 76 294 293 306 157 263 82 73 19 341 240 183 235 253 258 248 212 203 186 182 187 189 192 191 188 195 195 203 206 176 191 194 213 232 246 218 224 249 247 216 216 218 210 228
147 177 32 9 142 351 278 277 235 312 118 70 107 52 148 193 127 340 271 248 326 281 207 198 184 183 184 187 188 194 192 194 197 183 153 172 187 209 209 241 252 259 239 236 245 244 229 213 233
5 10 39 117 134 160 193 265 215 86 58 118 131 163 163 193 195 179 269 287 267 248 238 191 183 174 181 178 181 175 169 177 169 169 174 180 184 185 199 220 237 245 259 266 263 258 249 245 253
113 155 109 105 296 91 122 279 55 122 90 83 128 162 89 57 182 183 259 262 289 271 229 181 199 164 153 162 145 136 110 106 115 89 93 143 95 86 223 219 223 268 295 282 277 288 295 272 268